Home   Weather   Poznan   Past weeks

Flag for Poland Past Weather in Poznan, Poland — Yesterday and Last 2 Weeks

Now
59 °F

Passing clouds.


Feels Like: 57 °F
Forecast: 60 / 67 °F
Wind: 9 mph from West

Location: Poznan Airport

Current Time: Jul 26, 2017 at 2:46:59 am

Latest Report: Jul 26, 2017 at 2:00 am


Visibility: N/A

Pressure: 29.50 "Hg

Humidity: 100%

Dew Point: 59 °F

Location of PoznanLocation

Past Weather in Poznan — Graph

°F

Poznan Temperature Yesterday

Maximum temperature yesterday: 64 °F (at 11:00 am)
Minimum temperature yesterday: 59 °F (at 10:00 pm)
Average temperature yesterday: 61 °F

High & Low Weather Summary for the Past Weeks

 TemperatureHumidityPressure
High82 °F (Jul 19, 4:00 pm)100% (Jul 11, 4:30 am)30.21 "Hg (Jul 11, 4:30 am)
Low46 °F (Jul 14, 3:00 am)25% (Jul 15, 5:30 pm)29.50 "Hg (Jul 25, 8:30 am)
Average66 °F74%29.94 "Hg
* Reported Jul 11 1:00 am — Jul 26 1:30 am, Poznan. Weather by CustomWeather, © 2017

Note: Actual official high and low records may vary slightly from our data, if they occured in-between our weather recording intervals... More about our weather records

Advertising

Poznan Weather History for the Previous 24 Hours

Scroll right to see more
 ConditionsComfort  
Time TempWeatherWind HumidityBarometerVisibility
1:30 am
Wed, Jul 26
59 °FPassing clouds.9 mph94%29.50 "HgN/A
1:00 am59 °FPassing clouds.9 mph100%29.50 "HgN/A
12:30 am59 °FPassing clouds.7 mph100%29.50 "HgN/A
12:00 am59 °FPassing clouds.6 mph100%29.50 "HgN/A
11:30 pm
Tue, Jul 25
59 °FLight rain. Passing clouds.8 mph100%29.53 "HgN/A
11:00 pm59 °FLight rain. Passing clouds.6 mph100%29.53 "HgN/A
10:30 pm59 °FLight rain. Passing clouds.7 mph100%29.53 "HgN/A
10:00 pm59 °FLight rain. Passing clouds.7 mph100%29.53 "HgN/A
9:30 pm61 °FLight rain. Passing clouds.8 mph94%29.53 "HgN/A
9:00 pm61 °FLight rain. Clear.8 mph94%29.53 "HgN/A
8:30 pm61 °FLight rain. Scattered clouds.7 mph94%29.53 "HgN/A
8:00 pm61 °FLight rain. Partly sunny.7 mph94%29.53 "HgN/A
7:30 pm61 °FLight rain. Partly sunny.8 mph100%29.53 "HgN/A
7:00 pm63 °FLight rain. Partly sunny.7 mph94%29.53 "HgN/A
6:30 pm61 °FLight rain. Partly sunny.7 mph100%29.53 "HgN/A
6:00 pm63 °FLight rain. Partly sunny.9 mph94%29.53 "HgN/A
5:30 pm63 °FLight rain. Partly sunny.9 mph88%29.53 "HgN/A
5:00 pm63 °FLight rain. Partly sunny.8 mph94%29.53 "HgN/A
4:30 pm61 °FLight rain. Broken clouds.9 mph100%29.53 "Hg5 mi
4:00 pm61 °FLight rain. Mostly cloudy.8 mph94%29.53 "Hg6 mi
3:30 pm61 °FLight rain. Mostly cloudy.10 mph100%29.53 "Hg4 mi
3:00 pm61 °FLight rain. Fog.8 mph100%29.53 "Hg2 mi
2:30 pm63 °FLight rain. Fog.5 mph94%29.53 "Hg2 mi
2:00 pm63 °FLight rain. Fog.7 mph94%29.53 "Hg2 mi
1:30 pm63 °FLight rain. Partly sunny.7 mph94%29.50 "HgN/A
1:00 pm63 °FLight rain. Partly sunny.6 mph100%29.50 "Hg5 mi
12:30 pm63 °FPartly sunny.7 mph100%29.50 "Hg4 mi
12:00 pm64 °FLight rain. Partly sunny.8 mph94%29.50 "Hg4 mi
11:30 am64 °FLight rain. Partly sunny.7 mph94%29.50 "Hg4 mi
11:00 am64 °FLight rain. Partly sunny.6 mph94%29.50 "Hg4 mi
10:30 am63 °FLight rain. Partly sunny.7 mph100%29.50 "Hg6 mi
10:00 am63 °FPartly sunny.8 mph94%29.50 "HgN/A
9:30 am63 °FLight rain. Partly sunny.9 mph94%29.50 "HgN/A
9:00 am63 °FLight rain. Partly sunny.9 mph94%29.50 "HgN/A
8:30 am63 °FLight rain. Partly sunny.10 mph94%29.50 "HgN/A
8:00 am61 °FRain. Fog.13 mph94%29.53 "Hg2 mi
7:30 am61 °FLight rain. Partly sunny.14 mph94%29.53 "HgN/A
7:00 am61 °FLight rain. Partly sunny.13 mph94%29.53 "HgN/A
6:30 am61 °FLight rain. Partly sunny.12 mph94%29.53 "HgN/A
6:00 am61 °FLight rain. Broken clouds.12 mph94%29.56 "HgN/A
5:30 am61 °FLight rain. Broken clouds.9 mph94%29.56 "HgN/A
5:00 am61 °FLight rain. Partly cloudy.10 mph94%29.56 "HgN/A
4:30 am61 °FRain. Partly cloudy.9 mph94%29.59 "Hg4 mi
4:00 am61 °FRain. Fog.6 mph94%29.59 "Hg3 mi
3:30 am61 °FRain. Passing clouds.8 mph94%29.62 "Hg4 mi
3:00 am61 °FRain. Passing clouds.8 mph94%29.62 "HgN/A
2:30 am61 °FLight rain. Passing clouds.7 mph88%29.62 "HgN/A
2:00 am61 °FLight rain. Passing clouds.6 mph94%29.65 "HgN/A
Weather by CustomWeather, © 2017

See weather overviewHow to use our weather pages